Time,TemperatureF,DewpointF,PressureIn,WindDirection,WindDirectionDegrees,WindSpeedMPH,WindSpeedGustMPH,Humidity,HourlyPrecipIn,Conditions,Clouds,dailyrainin,SoftwareType,DateUTC
2013-01-30 00:14:00,64.1,59.0,29.96,South,191,4.0,12.0,84,0.00,,,0.00,weatherlink.com 1.10,2013-01-30 05:14:00,
2013-01-30 00:29:00,63.9,59.0,29.95,South,169,3.0,13.0,83,0.00,,,0.00,weatherlink.com 1.10,2013-01-30 05:29:00,
2013-01-30 00:44:00,63.8,59.0,29.95,South,173,5.0,13.0,83,0.00,,,0.00,weatherlink.com 1.10,2013-01-30 05:44:00,
2013-01-30 00:59:00,63.5,58.0,29.94,South,186,6.0,12.0,83,0.00,,,0.00,weatherlink.com 1.10,2013-01-30 05:59:00,
2013-01-30 01:14:00,63.2,58.0,29.93,SSW,203,5.0,12.0,84,0.00,,,0.00,weatherlink.com 1.10,2013-01-30 06:14:00,
2013-01-30 01:29:00,63.2,58.0,29.91,SSE,160,4.0,13.0,84,0.00,,,0.00,weatherlink.com 1.10,2013-01-30 06:29:00,
2013-01-30 01:44:00,63.1,59.0,29.90,South,174,6.0,16.0,85,0.00,,,0.00,weatherlink.com 1.10,2013-01-30 06:44:00,
2013-01-30 01:59:00,63.0,59.0,29.90,WSW,246,11.0,12.0,86,0.00,,,0.00,weatherlink.com 1.10,2013-01-30 06:59:00,
2013-01-30 02:14:00,63.0,59.0,29.90,South,174,4.0,10.0,86,0.00,,,0.00,weatherlink.com 1.10,2013-01-30 07:14:00,
2013-01-30 02:29:00,63.7,60.0,29.89,SSE,167,7.0,12.0,86,0.00,,,0.00,weatherlink.com 1.10,2013-01-30 07:29:00,
2013-01-30 02:44:00,63.9,59.0,29.88,South,187,3.0,19.0,85,0.00,,,0.00,weatherlink.com 1.10,2013-01-30 07:44:00,
2013-01-30 02:59:00,63.2,59.0,29.87,South,188,4.0,15.0,87,0.00,,,0.00,weatherlink.com 1.10,2013-01-30 07:59:00,
2013-01-30 03:14:00,63.3,59.0,29.86,SSE,167,6.0,12.0,87,0.00,,,0.00,weatherlink.com 1.10,2013-01-30 08:14:00,
2013-01-30 03:30:00,63.6,60.0,29.86,SSE,162,11.0,15.0,87,0.00,,,0.00,weatherlink.com 1.10,2013-01-30 08:30:00,
2013-01-30 03:45:00,63.7,60.0,29.85,SW,221,4.0,12.0,87,0.00,,,0.00,weatherlink.com 1.10,2013-01-30 08:45:00,
2013-01-30 04:00:00,63.9,60.0,29.84,SSE,162,10.0,18.0,87,0.00,,,0.00,weatherlink.com 1.10,2013-01-30 09:00:00,
2013-01-30 04:15:00,63.9,60.0,29.83,WSW,248,7.0,15.0,88,0.00,,,0.00,weatherlink.com 1.10,2013-01-30 09:15:00,
2013-01-30 04:30:00,63.1,60.0,29.83,South,169,4.0,9.0,90,0.00,,,0.00,weatherlink.com 1.10,2013-01-30 09:30:00,
2013-01-30 04:45:00,62.6,60.0,29.82,SE,143,3.0,15.0,91,0.00,,,0.00,weatherlink.com 1.10,2013-01-30 09:45:00,
2013-01-30 05:00:00,62.8,60.0,29.81,SSE,164,6.0,12.0,91,0.00,,,0.00,weatherlink.com 1.10,2013-01-30 10:00:00,
2013-01-30 05:15:00,62.7,60.0,29.80,South,191,4.0,11.0,91,0.01,,,0.01,weatherlink.com 1.10,2013-01-30 10:15:00,
2013-01-30 05:30:00,62.6,60.0,29.78,South,191,6.0,13.0,92,0.01,,,0.01,weatherlink.com 1.10,2013-01-30 10:30:00,
2013-01-30 05:45:00,62.8,61.0,29.78,SSE,158,3.0,9.0,92,0.07,,,0.07,weatherlink.com 1.10,2013-01-30 10:45:00,
2013-01-30 06:00:00,62.0,60.0,29.77,SE,139,2.0,7.0,94,0.21,,,0.21,weatherlink.com 1.10,2013-01-30 11:00:00,
2013-01-30 06:15:00,62.1,60.0,29.76,SSE,166,2.0,9.0,94,0.23,,,0.24,weatherlink.com 1.10,2013-01-30 11:15:00,
2013-01-30 06:30:00,63.4,61.0,29.75,SW,219,7.0,14.0,91,0.23,,,0.24,weatherlink.com 1.10,2013-01-30 11:30:00,
2013-01-30 06:45:00,63.3,61.0,29.74,South,169,5.0,11.0,92,0.17,,,0.25,weatherlink.com 1.10,2013-01-30 11:45:00,
2013-01-30 07:01:00,63.6,61.0,29.75,SSW,212,8.0,16.0,92,0.09,,,0.31,weatherlink.com 1.10,2013-01-30 12:01:00,
2013-01-30 07:15:00,64.0,61.0,29.74,SSE,158,4.0,15.0,91,0.07,,,0.31,weatherlink.com 1.10,2013-01-30 12:15:00,
2013-01-30 07:30:00,64.7,62.0,29.73,South,189,5.0,11.0,90,0.07,,,0.31,weatherlink.com 1.10,2013-01-30 12:30:00,
2013-01-30 07:45:00,64.4,62.0,29.73,WSW,248,5.0,21.0,91,0.09,,,0.34,weatherlink.com 1.10,2013-01-30 12:45:00,
2013-01-30 08:00:00,64.4,62.0,29.73,South,176,11.0,15.0,91,0.11,,,0.42,weatherlink.com 1.10,2013-01-30 13:00:00,
2013-01-30 08:15:00,64.7,62.0,29.72,SE,127,9.0,21.0,90,0.13,,,0.44,weatherlink.com 1.10,2013-01-30 13:15:00,
2013-01-30 08:30:00,64.7,62.0,29.72,South,189,7.0,17.0,90,0.13,,,0.44,weatherlink.com 1.10,2013-01-30 13:30:00,
2013-01-30 08:45:00,65.0,62.0,29.71,SSE,157,8.0,16.0,90,0.11,,,0.45,weatherlink.com 1.10,2013-01-30 13:45:00,
2013-01-30 09:00:00,65.2,62.0,29.71,South,191,8.0,27.0,89,0.04,,,0.46,weatherlink.com 1.10,2013-01-30 14:00:00,
2013-01-30 09:15:00,65.0,62.0,29.70,SSW,203,5.0,13.0,90,0.03,,,0.47,weatherlink.com 1.10,2013-01-30 14:15:00,
2013-01-30 09:30:00,65.7,62.0,29.71,SSE,153,12.0,16.0,88,0.03,,,0.47,weatherlink.com 1.10,2013-01-30 14:30:00,
2013-01-30 09:45:00,66.4,62.0,29.70,WSW,243,7.0,15.0,86,0.02,,,0.47,weatherlink.com 1.10,2013-01-30 14:45:00,
2013-01-30 10:00:00,66.9,62.0,29.70,SSE,167,11.0,14.0,85,0.01,,,0.47,weatherlink.com 1.10,2013-01-30 15:00:00,
2013-01-30 10:15:00,67.3,62.0,29.69,South,183,6.0,14.0,84,0.00,,,0.47,weatherlink.com 1.10,2013-01-30 15:15:00,
2013-01-30 10:30:00,66.3,62.0,29.68,South,187,3.0,14.0,86,0.01,,,0.48,weatherlink.com 1.10,2013-01-30 15:30:00,
2013-01-30 10:45:00,65.2,62.0,29.68,ESE,120,3.0,14.0,89,0.04,,,0.51,weatherlink.com 1.10,2013-01-30 15:45:00,
2013-01-30 11:01:00,65.5,62.0,29.67,West,273,4.0,18.0,89,0.04,,,0.51,weatherlink.com 1.10,2013-01-30 16:01:00,
2013-01-30 11:15:00,65.7,62.0,29.65,SSE,152,5.0,14.0,87,0.05,,,0.52,weatherlink.com 1.10,2013-01-30 16:15:00,
2013-01-30 11:30:00,66.0,62.0,29.64,South,183,4.0,12.0,87,0.04,,,0.52,weatherlink.com 1.10,2013-01-30 16:30:00,
2013-01-30 11:46:00,65.4,62.0,29.61,WSW,239,3.0,17.0,88,0.01,,,0.52,weatherlink.com 1.10,2013-01-30 16:46:00,
2013-01-30 12:01:00,64.9,62.0,29.57,WSW,239,7.0,13.0,89,0.02,,,0.53,weatherlink.com 1.10,2013-01-30 17:01:00,
2013-01-30 12:16:00,64.6,62.0,29.56,South,170,11.0,20.0,90,0.02,,,0.54,weatherlink.com 1.10,2013-01-30 17:16:00,
2013-01-30 12:31:00,60.1,58.0,29.63,SSE,153,3.0,13.0,91,0.53,,,1.05,weatherlink.com 1.10,2013-01-30 17:31:00,
2013-01-30 12:46:00,58.8,57.0,29.63,SSW,212,6.0,13.0,93,0.72,,,1.24,weatherlink.com 1.10,2013-01-30 17:46:00,
2013-01-30 13:01:00,58.4,57.0,29.62,ESE,121,3.0,5.0,94,0.77,,,1.30,weatherlink.com 1.10,2013-01-30 18:01:00,
2013-01-30 13:16:00,58.3,57.0,29.61,North,4,4.0,4.0,94,0.85,,,1.39,weatherlink.com 1.10,2013-01-30 18:16:00,
2013-01-30 13:31:00,57.9,56.0,29.60,SSE,151,4.0,5.0,94,0.40,,,1.47,weatherlink.com 1.10,2013-01-30 18:31:00,
2013-01-30 13:46:00,57.4,56.0,29.59,SE,135,2.0,9.0,94,0.32,,,1.56,weatherlink.com 1.10,2013-01-30 18:46:00,
2013-01-30 14:01:00,57.2,56.0,29.57,East,101,4.0,6.0,94,0.33,,,1.63,weatherlink.com 1.10,2013-01-30 19:01:00,
2013-01-30 14:16:00,56.8,55.0,29.57,ESE,111,1.0,6.0,94,0.32,,,1.71,weatherlink.com 1.10,2013-01-30 19:16:00,
2013-01-30 14:31:00,56.4,55.0,29.57,SSE,166,2.0,7.0,94,0.32,,,1.79,weatherlink.com 1.10,2013-01-30 19:31:00,
2013-01-30 14:46:00,56.2,55.0,29.57,ESE,115,1.0,7.0,94,0.32,,,1.88,weatherlink.com 1.10,2013-01-30 19:46:00,
2013-01-30 15:01:00,55.9,54.0,29.57,SSW,204,4.0,12.0,94,0.32,,,1.95,weatherlink.com 1.10,2013-01-30 20:01:00,
2013-01-30 15:16:00,55.5,54.0,29.57,SSE,165,3.0,7.0,94,0.34,,,2.05,weatherlink.com 1.10,2013-01-30 20:16:00,
2013-01-30 15:31:00,55.4,54.0,29.56,SW,225,2.0,8.0,94,0.31,,,2.10,weatherlink.com 1.10,2013-01-30 20:31:00,
2013-01-30 15:46:00,55.2,54.0,29.56,North,355,1.0,8.0,94,0.26,,,2.15,weatherlink.com 1.10,2013-01-30 20:46:00,
2013-01-30 16:01:00,54.9,53.0,29.57,East,101,5.0,9.0,94,0.26,,,2.21,weatherlink.com 1.10,2013-01-30 21:01:00,
2013-01-30 16:16:00,54.5,53.0,29.56,SW,223,3.0,9.0,94,0.22,,,2.27,weatherlink.com 1.10,2013-01-30 21:16:00,
2013-01-30 16:31:00,54.2,53.0,29.56,SSE,150,2.0,8.0,94,0.18,,,2.28,weatherlink.com 1.10,2013-01-30 21:31:00,
2013-01-30 16:46:00,53.5,52.0,29.58,SSE,156,0.0,6.0,94,0.15,,,2.30,weatherlink.com 1.10,2013-01-30 21:46:00,
2013-01-30 17:01:00,52.5,51.0,29.60,West,262,4.0,6.0,93,0.15,,,2.36,weatherlink.com 1.10,2013-01-30 22:01:00,
2013-01-30 17:16:00,50.6,48.0,29.61,SSE,150,0.0,5.0,91,0.12,,,2.39,weatherlink.com 1.10,2013-01-30 22:16:00,
2013-01-30 17:31:00,48.8,46.0,29.61,East,98,0.0,5.0,91,0.16,,,2.44,weatherlink.com 1.10,2013-01-30 22:31:00,
2013-01-30 17:47:00,47.5,45.0,29.65,West,271,1.0,2.0,92,0.18,,,2.48,weatherlink.com 1.10,2013-01-30 22:47:00,
2013-01-30 18:02:00,46.7,45.0,29.57,North,358,0.0,2.0,94,0.17,,,2.53,weatherlink.com 1.10,2013-01-30 23:02:00,
2013-01-30 18:17:00,46.3,45.0,29.59,North,360,0.0,1.0,94,0.16,,,2.55,weatherlink.com 1.10,2013-01-30 23:17:00,
2013-01-30 18:32:00,46.2,45.0,29.59,North,354,0.0,1.0,94,0.12,,,2.56,weatherlink.com 1.10,2013-01-30 23:32:00,
2013-01-30 18:47:00,46.2,45.0,29.57,West,271,1.0,2.0,95,0.09,,,2.57,weatherlink.com 1.10,2013-01-30 23:47:00,
2013-01-30 19:02:00,46.3,45.0,29.61,West,264,1.0,2.0,95,0.04,,,2.57,weatherlink.com 1.10,2013-01-31 00:02:00,
2013-01-30 19:17:00,45.7,44.0,29.59,SE,128,3.0,7.0,94,0.03,,,2.58,weatherlink.com 1.10,2013-01-31 00:17:00,
2013-01-30 19:32:00,45.4,44.0,29.62,SE,127,2.0,5.0,94,0.03,,,2.59,weatherlink.com 1.10,2013-01-31 00:32:00,
2013-01-30 19:47:00,44.9,43.0,29.63,SSE,168,1.0,4.0,94,0.03,,,2.60,weatherlink.com 1.10,2013-01-31 00:47:00,
2013-01-30 20:02:00,44.1,43.0,29.62,ESE,117,2.0,5.0,94,0.05,,,2.62,weatherlink.com 1.10,2013-01-31 01:02:00,
2013-01-30 20:17:00,43.5,42.0,29.60,SW,219,1.0,4.0,93,0.06,,,2.64,weatherlink.com 1.10,2013-01-31 01:17:00,
2013-01-30 20:32:00,43.2,42.0,29.62,SW,227,1.0,6.0,94,0.06,,,2.65,weatherlink.com 1.10,2013-01-31 01:32:00,
2013-01-30 20:47:00,43.0,41.0,29.61,East,94,0.0,3.0,94,0.05,,,2.65,weatherlink.com 1.10,2013-01-31 01:47:00,
2013-01-30 21:02:00,43.3,42.0,29.61,SE,134,1.0,5.0,95,0.03,,,2.65,weatherlink.com 1.10,2013-01-31 02:02:00,
2013-01-30 21:17:00,43.5,42.0,29.61,WNW,297,1.0,7.0,94,0.01,,,2.65,weatherlink.com 1.10,2013-01-31 02:17:00,
2013-01-30 21:32:00,43.3,42.0,29.61,SSE,158,0.0,7.0,93,0.00,,,2.65,weatherlink.com 1.10,2013-01-31 02:32:00,
2013-01-30 21:47:00,43.2,41.0,29.61,SSE,158,1.0,5.0,93,0.00,,,2.65,weatherlink.com 1.10,2013-01-31 02:47:00,
2013-01-30 22:02:00,43.2,41.0,29.62,SSW,210,0.0,11.0,93,0.01,,,2.66,weatherlink.com 1.10,2013-01-31 03:02:00,
2013-01-30 22:17:00,43.1,41.0,29.63,SSW,203,0.0,8.0,93,0.01,,,2.66,weatherlink.com 1.10,2013-01-31 03:17:00,
2013-01-30 22:32:00,42.7,41.0,29.65,NW,309,1.0,6.0,93,0.01,,,2.66,weatherlink.com 1.10,2013-01-31 03:32:00,
2013-01-30 22:47:00,42.5,40.0,29.67,WNW,284,0.0,7.0,92,0.01,,,2.66,weatherlink.com 1.10,2013-01-31 03:47:00,
2013-01-30 23:02:00,42.0,40.0,29.69,South,174,2.0,4.0,92,0.01,,,2.67,weatherlink.com 1.10,2013-01-31 04:02:00,
2013-01-30 23:17:00,40.9,39.0,29.71,NNW,339,0.0,4.0,92,0.02,,,2.68,weatherlink.com 1.10,2013-01-31 04:17:00,
2013-01-30 23:32:00,39.7,37.0,29.73,ESE,103,5.0,6.0,91,0.03,,,2.69,weatherlink.com 1.10,2013-01-31 04:32:00,
2013-01-30 23:47:00,38.8,36.0,29.73,North,6,3.0,7.0,91,0.03,,,2.69,weatherlink.com 1.10,2013-01-31 04:47:00,